Location: Boiro
(42.6475°N, 8.8834°W)
Time: 12:10:16
(UTC+01:00)

Tiros 1 - Pass Details

Date: 01 December 2021
Orbit: 630 x 663 km, 48.4° (Epoch: 20 January)

Event Time Altitude Azimuth Distance (km) Brightness Sun altitude
Rises 20:07:51 0° 211° (SSW) 2,908 11.1 -22.4°
Reaches altitude 10° 20:10:20 10° 201° (SSW) 2,008 10.0 -22.8°
Enters shadow 20:13:31 29° 161° (SSE) 1,178 8.3 -23.4°
